Location: Byszew
(52.1813°N, 19.2693°E)
Time: 04:54:16
(UTC+00:00)

SPROUT - Pass Details

Date: 11 July 2022
Orbit: 588 x 598 km, 97.9° (Epoch: 18 August)

Event Time Altitude Azimuth Distance (km) Brightness Sun altitude
Exits shadow 00:18:09 18° 225° (SW) 1,454 ? -13.1°
Maximum altitude 00:20:07 26° 266° (W) 1,183 ? -13.0°
Drops below altitude 10° 00:23:40 10° 324° (NW) 1,934 ? -12.8°
Sets 00:26:08 0° 337° (NNW) 2,843 ? -12.7°
